Location: Fisheating Creek Campgrounds
(26.9333°N, 81.3167°W)
Time: 22:09:10
(UTC-04:00)

Cosmos 2221 Rocket - Visible Passes

Search period start: 26 June 2016 00:00
Search period end: 06 July 2016 00:00
Orbit: 622 x 647 km, 82.5° (Epoch: 26 June)

Date Brightness Start Highest point End Pass type
(mag) Time Alt. Az. Time Alt. Az. Time Alt. Az.
26 Jun 6.5 00:32:37 10° N 00:33:22 15° N 00:33:22 15° N visible
27 Jun 6.6 00:54:59 10° NNW 00:55:32 13° NNW 00:55:32 13° NNW visible
27 Jun 6.4 23:39:55 10° NNE 23:40:13 11° NNE 23:40:13 11° NNE visible
29 Jun 6.2 00:01:24 10° N 00:02:24 16° N 00:02:24 16° N visible
30 Jun 6.3 00:23:35 10° NNW 00:24:36 17° NNW 00:24:36 17° NNW visible
30 Jun 6.3 23:09:02 10° NE 23:09:20 11° NE 23:09:20 11° NE visible
01 Jul 6.6 00:46:27 10° NW 00:46:49 12° NW 00:46:49 12° NW visible
01 Jul 5.9 23:30:14 10° NNE 23:31:33 18° NNE 23:31:33 18° NNE visible
02 Jul 5.9 23:52:14 10° N 23:53:48 21° N 23:53:48 21° N visible
03 Jul 6.1 22:38:22 10° NE 22:38:33 11° NE 22:38:33 11° NE visible
04 Jul 6.3 00:14:53 10° NNW 00:16:03 17° NW 00:16:03 17° NW visible
04 Jul 5.6 22:59:07 10° NNE 23:00:50 20° NNE 23:00:50 20° NNE visible
05 Jul 5.4 23:20:56 10° N 23:23:07 28° N 23:23:07 28° N visible
